Tracking 31027 objects as of 19-Jul-2025
HD Live streaming from Space Station
objects crossing your sky now

STARLINK-30768

Track STARLINK-30768 now!
10-day predictions
STARLINK-30768 is classified as:


NORAD ID: 58120
Int'l Code: 2023-162C
Perigee: 565.1 km
Apogee: 567.3 km
Inclination: 43.0 °
Period: 95.8 minutes
Semi major axis: 6937 km
RCS: Unknown
Launch date: October 22, 2023
Source: United States (US)
Launch site: AIR FORCE EASTERN TEST RANGE (AFETR)
Your satellite tracking list
COSMOS 2251 DEB
Track 1 satellite(s)




NASA's NSSDC Master Catalog

Two Line Element Set (TLE):
1 58120U 23162C   25199.64654271 -.00000194  00000-0  71046-6 0  9990
2 58120  43.0036 324.8354 0001539 274.7894  85.2772 15.02537016 97009
Source of the keplerian elements: AFSPC